When you browse on this site, cookies collect data to enhance your experience and personalize the content and advertising you see.
Visit our Privacy Policy to learn more. By continuing to use the site, you agree to this use of cookies and data.
  • In Spain
  • List of Countries
  • For 7 days
  • Water Temperature
  • Weather Map
  • Weather Widgets
  • user-avatar
    Login

    Hourly Weather Ankona

    Today, 22 November, Friday

    Time Temperature Precipitation Wind Pressure Humidity
    00:00 +10°C° 0 mm 2 mps 756 mmHg 76%
    01:00 +10°C° 0 mm 2 mps 756 mmHg 76%
    02:00 +10°C° 0 mm 2 mps 756 mmHg 75%
    03:00 +10°C° 0 mm 2 mps 756 mmHg 75%
    04:00 +11°C° 0 mm 1 mps 755 mmHg 75%
    05:00 +10°C° 0 mm 1 mps 756 mmHg 75%
    06:00 +10°C° 0 mm 1 mps 756 mmHg 75%
    07:00 +10°C° 0 mm 1 mps 756 mmHg 74%
    08:00 +12°C° 0 mm 1 mps 756 mmHg 70%
    09:00 +13°C° 0 mm 1 mps 756 mmHg 65%
    10:00 +15°C° 0 mm 1 mps 756 mmHg 60%
    11:00 +15°C° 0 mm 2 mps 756 mmHg 59%
    12:00 +16°C° 0 mm 2 mps 756 mmHg 58%
    13:00 +17°C° 0 mm 3 mps 756 mmHg 57%
    14:00 +16°C° 0 mm 3 mps 756 mmHg 62%
    15:00 +14°C° 0 mm 3 mps 755 mmHg 68%
    16:00 +13°C° 0 mm 3 mps 755 mmHg 73%
    17:00 +13°C° 0 mm 3 mps 755 mmHg 75%
    18:00 +12°C° 0 mm 3 mps 755 mmHg 78%
    19:00 +11°C° 0 mm 4 mps 755 mmHg 80%
    20:00 +11°C° 0 mm 4 mps 755 mmHg 79%
    21:00 +11°C° 0 mm 4 mps 755 mmHg 78%
    22:00 +10°C° 0 mm 4 mps 756 mmHg 78%
    23:00 +10°C° 0 mm 4 mps 755 mmHg 77%

    Tomorrow, 23 November, Saturday

    Time Temperature Precipitation Wind Pressure Humidity
    00:00 +10°C° 0 mm 3 mps 755 mmHg 76%
    01:00 +10°C° 0 mm 3 mps 755 mmHg 75%
    02:00 +10°C° 0 mm 3 mps 755 mmHg 75%
    03:00 +10°C° 0 mm 3 mps 754 mmHg 74%
    04:00 +10°C° 0 mm 3 mps 754 mmHg 73%
    05:00 +10°C° 0 mm 3 mps 754 mmHg 74%
    06:00 +10°C° 0 mm 4 mps 754 mmHg 74%
    07:00 +10°C° 0 mm 4 mps 753 mmHg 75%
    08:00 +10°C° 0 mm 5 mps 753 mmHg 72%
    09:00 +13°C° 0 mm 5 mps 753 mmHg 68%
    10:00 +14°C° 0 mm 6 mps 753 mmHg 65%
    11:00 +14°C° 0 mm 6 mps 753 mmHg 64%
    12:00 +15°C° 0 mm 6 mps 752 mmHg 63%
    13:00 +16°C° 0 mm 6 mps 752 mmHg 62%
    14:00 +15°C° 0 mm 6 mps 752 mmHg 65%
    15:00 +15°C° 0 mm 6 mps 751 mmHg 68%
    16:00 +14°C° 0 mm 6 mps 751 mmHg 71%
    17:00 +14°C° 0 mm 6 mps 751 mmHg 72%
    18:00 +13°C° 0 mm 6 mps 751 mmHg 74%
    19:00 +13°C° 0 mm 6 mps 751 mmHg 75%
    20:00 +13°C° 0 mm 6 mps 751 mmHg 72%
    21:00 +13°C° 0 mm 5 mps 751 mmHg 69%
    22:00 +13°C° 0 mm 5 mps 751 mmHg 67%
    23:00 +13°C° 0 mm 5 mps 751 mmHg 67%

    Day after tomorrow, 24 November, Sunday

    Time Temperature Precipitation Wind Pressure Humidity
    00:00 +13°C° 0 mm 5 mps 751 mmHg 67%
    01:00 +13°C° 0 mm 5 mps 751 mmHg 67%
    02:00 +13°C° 0 mm 5 mps 750 mmHg 68%
    03:00 +13°C° 0 mm 6 mps 750 mmHg 69%
    04:00 +13°C° 0 mm 6 mps 750 mmHg 71%
    05:00 +12°C° 0 mm 5 mps 750 mmHg 72%
    06:00 +12°C° 0 mm 5 mps 750 mmHg 72%
    07:00 +12°C° 0 mm 4 mps 750 mmHg 73%
    08:00 +13°C° 0 mm 5 mps 750 mmHg 72%
    09:00 +14°C° 0 mm 5 mps 750 mmHg 71%
    10:00 +15°C° 0 mm 5 mps 751 mmHg 70%
    11:00 +16°C° 0.1 mm 6 mps 751 mmHg 71%
    12:00 +16°C° 0.1 mm 6 mps 751 mmHg 72%
    13:00 +17°C° 0.1 mm 7 mps 751 mmHg 73%
    14:00 +16°C° 0.2 mm 8 mps 751 mmHg 75%
    15:00 +16°C° 0.2 mm 8 mps 751 mmHg 78%
    16:00 +16°C° 0.2 mm 8 mps 751 mmHg 80%
    17:00 +15°C° 0.2 mm 8 mps 751 mmHg 83%
    18:00 +15°C° 0.2 mm 7 mps 751 mmHg 85%
    19:00 +14°C° 0.2 mm 7 mps 751 mmHg 87%
    20:00 +14°C° 0 mm 6 mps 752 mmHg 87%
    21:00 +14°C° 0 mm 6 mps 752 mmHg 87%
    22:00 +14°C° 0 mm 5 mps 752 mmHg 87%
    23:00 +14°C° 0 mm 5 mps 753 mmHg 88%

    25 November, Monday

    Time Temperature Precipitation Wind Pressure Humidity
    00:00 +14°C° 0 mm 5 mps 753 mmHg 89%
    01:00 +14°C° 0 mm 5 mps 753 mmHg 89%
    02:00 +13°C° 0 mm 5 mps 753 mmHg 90%
    03:00 +13°C° 0 mm 5 mps 753 mmHg 91%
    04:00 +13°C° 0 mm 5 mps 753 mmHg 91%
    05:00 +13°C° 0 mm 5 mps 753 mmHg 92%
    06:00 +13°C° 0 mm 6 mps 754 mmHg 92%
    07:00 +11°C° 0 mm 6 mps 754 mmHg 93%
    08:00 +13°C° 0 mm 6 mps 754 mmHg 89%
    09:00 +14°C° 0 mm 7 mps 755 mmHg 84%
    10:00 +15°C° 0 mm 7 mps 755 mmHg 80%
    11:00 +15°C° 0 mm 7 mps 755 mmHg 77%
    12:00 +16°C° 0 mm 7 mps 755 mmHg 74%
    13:00 +17°C° 0 mm 7 mps 755 mmHg 72%
    14:00 +16°C° 0 mm 7 mps 754 mmHg 74%
    15:00 +16°C° 0 mm 6 mps 754 mmHg 76%
    16:00 +15°C° 0 mm 6 mps 754 mmHg 79%
    17:00 +14°C° 0 mm 6 mps 754 mmHg 82%
    18:00 +14°C° 0 mm 5 mps 754 mmHg 84%
    19:00 +13°C° 0 mm 5 mps 755 mmHg 87%
    20:00 +13°C° 0 mm 5 mps 755 mmHg 86%
    21:00 +13°C° 0 mm 4 mps 755 mmHg 85%
    22:00 +13°C° 0 mm 4 mps 755 mmHg 85%
    23:00 +12°C° 0 mm 4 mps 755 mmHg 84%

    26 November, Tuesday

    Time Temperature Precipitation Wind Pressure Humidity
    00:00 +12°C° 0 mm 3 mps 755 mmHg 84%
    01:00 +12°C° 0 mm 3 mps 755 mmHg 83%
    02:00 +12°C° 0 mm 3 mps 755 mmHg 83%
    03:00 +12°C° 0 mm 3 mps 755 mmHg 83%
    04:00 +11°C° 0 mm 3 mps 755 mmHg 83%
    05:00 +11°C° 0 mm 3 mps 755 mmHg 83%
    06:00 +11°C° 0 mm 3 mps 755 mmHg 82%
    07:00 +11°C° 0 mm 3 mps 755 mmHg 82%
    08:00 +12°C° 0 mm 3 mps 756 mmHg 78%
    09:00 +14°C° 0 mm 2 mps 756 mmHg 73%
    10:00 +15°C° 0 mm 2 mps 756 mmHg 69%
    11:00 +16°C° 0 mm 2 mps 756 mmHg 68%
    12:00 +16°C° 0 mm 2 mps 756 mmHg 66%
    13:00 +17°C° 0 mm 3 mps 756 mmHg 64%
    14:00 +16°C° 0 mm 2 mps 756 mmHg 71%
    15:00 +16°C° 0 mm 2 mps 756 mmHg 77%
    16:00 +15°C° 0 mm 2 mps 756 mmHg 83%
    17:00 +14°C° 0 mm 2 mps 756 mmHg 86%
    18:00 +13°C° 0 mm 1 mps 756 mmHg 88%
    19:00 +13°C° 0 mm 1 mps 757 mmHg 91%
    20:00 +12°C° 0 mm 1 mps 757 mmHg 90%
    21:00 +12°C° 0 mm 1 mps 757 mmHg 90%
    22:00 +12°C° 0 mm 1 mps 758 mmHg 89%
    23:00 +12°C° 0 mm 1 mps 758 mmHg 88%

    27 November, Wednesday

    Time Temperature Precipitation Wind Pressure Humidity
    00:00 +12°C° 0 mm 2 mps 758 mmHg 87%
    01:00 +12°C° 0 mm 2 mps 758 mmHg 86%
    02:00 +12°C° 0 mm 2 mps 758 mmHg 84%
    03:00 +11°C° 0 mm 3 mps 758 mmHg 82%
    04:00 +11°C° 0 mm 3 mps 758 mmHg 81%
    05:00 +11°C° 0 mm 3 mps 758 mmHg 78%
    06:00 +12°C° 0 mm 3 mps 758 mmHg 76%
    07:00 +12°C° 0 mm 3 mps 758 mmHg 74%
    08:00 +13°C° 0 mm 3 mps 758 mmHg 70%
    09:00 +14°C° 0 mm 3 mps 758 mmHg 66%
    10:00 +17°C° 0 mm 3 mps 758 mmHg 63%
    11:00 +18°C° 0 mm 4 mps 758 mmHg 60%
    12:00 +19°C° 0 mm 4 mps 757 mmHg 56%
    13:00 +20°C° 0 mm 5 mps 757 mmHg 53%
    14:00 +19°C° 0 mm 4 mps 757 mmHg 58%
    15:00 +18°C° 0 mm 4 mps 757 mmHg 62%
    16:00 +17°C° 0 mm 4 mps 757 mmHg 66%
    17:00 +15°C° 0 mm 4 mps 757 mmHg 69%
    18:00 +14°C° 0 mm 4 mps 757 mmHg 72%
    19:00 +13°C° 0 mm 3 mps 757 mmHg 75%
    20:00 +13°C° 0 mm 3 mps 757 mmHg 76%
    21:00 +13°C° 0 mm 3 mps 757 mmHg 77%
    22:00 +14°C° 0 mm 2 mps 757 mmHg 78%
    23:00 +14°C° 0 mm 2 mps 757 mmHg 79%
    Show more